Find Raduga-1

NORAD ID: 34264 Int'l Des: 2009-010 Owner: KVR Country: RU operational
HEOCIRCULAR

Live Position

Loading 3D Globe...

About Raduga-1

Description loading...

Upcoming Passes

Passes for default location (London). Set your location on the main map for personalized predictions.

Altitude History

Loading altitude history...

Two-Line Element Set

1 34264U 09010A 26105.01618925 -.00000022 00000-0 00000+0 0 9999
2 34264 11.9939 42.3007 0010820 20.8146 154.3690 0.99829284 62547
Epoch: Apr 15, 2026 • Age: 60 hours

Current Status

Altitude 35872.5 km
Velocity 3.07 km/s
Sub-Earth Point -2.62°S, 4.71°E
Launch Date Feb 28, 2009
Age 17.1 years
Type other

Technical Details

Classification Payload
Mass 2320.00 kg
Dry Mass 2200.00 kg
Total Mass 2320.00 kg
Length 5.00 m
Diameter 2.00 m
Span 20.00 m
Shape Step Cyl + 2 Pan
Manufacturer RESH/POLK
Bus Type Globus
Phase Status In Orbit
Owner/State KVR/RU

Most Searched